SMAP

Last updated on Sun Jun 21 2026 00:02:52 GMT+0000 (Coordinated Universal Time)

1 40376U 15003A 26171.43033080 .00000302 00000+0 67443-4 0 9999 2 40376 98.1276 178.4790 0001362 97.1421 262.9936 14.63368901608098
UTC large
Height (km)
Speed (km/s)
/
Latitude / Longitude
Inclination (degrees)
Orbital Period (minutes)
Azimuth
Elevation
Range (km)
Doppler Factor

Next 0 passes for location: London (51.5072 / 0.1276)

No passes found over London.
SMAP